CST,Max TemperatureF,Mean TemperatureF,Min TemperatureF,Max Dew PointF,MeanDew PointF,Min DewpointF,Max Humidity, Mean Humidity, Min Humidity, Max Sea Level PressureIn, Mean Sea Level PressureIn, Min Sea Level PressureIn, Max VisibilityMiles, Mean VisibilityMiles, Min VisibilityMiles, Max Wind SpeedMPH, Mean Wind SpeedMPH, Max Gust SpeedMPH,PrecipitationIn, CloudCover, Events, WindDirDegrees
2011-12-1,62,48,34,39,32,25,71,54,36,30.34,30.23,30.14,10,10,10,12,6,14,0.00,1,,72
2011-12-2,57,53,48,42,40,37,71,65,59,30.39,30.32,30.25,10,10,6,10,4,13,T,8,Rain,62
2011-12-3,66,57,48,58,51,38,93,77,60,30.22,30.06,29.95,10,8,2,20,10,28,0.93,6,Rain,169
2011-12-4,56,49,42,54,41,36,100,85,70,30.20,30.14,30.04,10,7,2,21,7,24,0.61,8,Rain,287
2011-12-5,44,40,35,36,30,26,89,74,59,30.30,30.22,30.08,10,8,1,20,10,24,0.22,8,Rain-Snow,347
2011-12-6,37,34,31,27,24,21,75,68,61,30.33,30.29,30.24,10,10,5,16,9,20,T,8,Snow,330
2011-12-7,42,34,26,26,21,18,85,61,36,30.34,30.30,30.27,10,10,7,16,7,18,0.00,1,,271
2011-12-8,50,38,25,29,26,22,85,62,39,30.34,30.26,30.18,10,10,10,8,2,10,0.00,0,,59
2011-12-9,54,41,27,32,28,24,92,65,38,30.50,30.35,30.23,10,10,7,10,3,15,0.00,0,,295
2011-12-10,49,38,27,32,29,24,92,71,50,30.63,30.55,30.49,10,6,2,7,1,13,0.00,0,,72
2011-12-11,51,40,28,31,29,26,92,69,46,30.52,30.43,30.33,10,8,4,12,6,22,0.00,1,,73
2011-12-12,46,42,37,39,32,27,76,65,53,30.39,30.34,30.30,10,10,10,14,7,16,0.05,8,Rain,74
2011-12-13,59,52,45,47,43,37,86,70,53,30.36,30.28,30.18,10,9,4,17,9,21,0.00,6,,81
2011-12-14,67,59,50,61,54,48,97,85,73,30.16,30.00,29.87,10,7,1,17,8,24,0.91,8,Rain,97
2011-12-15,62,54,45,55,44,34,93,77,60,30.29,30.15,29.95,10,10,7,13,7,16,0.04,4,Rain,284
2011-12-16,51,43,34,38,32,27,82,62,42,30.44,30.38,30.29,10,10,8,10,4,15,0.04,2,Rain,343
2011-12-17,55,42,29,35,31,27,89,65,41,30.50,30.44,30.39,10,9,6,9,2,12,0.00,0,,249
2011-12-18,54,42,29,43,34,27,92,78,63,30.40,30.31,30.11,10,7,0,9,2,10,0.00,3,Fog,63
2011-12-19,61,54,47,47,42,37,93,68,42,30.09,29.96,29.86,10,8,2,18,9,23,0.48,6,Rain,72
2011-12-20,59,51,43,52,45,37,93,74,55,29.92,29.85,29.75,10,7,0,23,11,30,0.04,7,Fog,38
2011-12-21,47,43,38,38,35,32,92,76,60,30.03,29.96,29.92,10,10,10,20,8,23,0.00,5,,271
2011-12-22,57,48,39,41,37,34,86,65,43,30.29,30.08,29.95,10,10,9,15,6,17,0.00,4,,21
2011-12-23,42,37,31,34,31,27,85,76,67,30.46,30.41,30.31,10,9,5,10,4,14,0.00,5,,287
2011-12-24,44,35,25,33,27,23,96,73,49,30.51,30.46,30.40,10,4,0,7,1,8,0.00,2,Fog,257
2011-12-25,60,45,29,33,28,21,92,58,23,30.47,30.39,30.32,10,9,6,10,2,12,0.00,0,,244
2011-12-26,45,41,37,39,37,31,89,80,70,30.28,30.09,29.96,10,8,2,17,5,20,0.12,8,Rain-Thunderstorm,44
2011-12-27,56,45,33,40,32,20,89,57,24,30.19,30.08,29.95,10,9,5,21,10,26,0.00,2,,271
2011-12-28,57,42,27,33,29,24,92,65,38,30.19,30.10,30.03,10,10,10,9,2,14,0.00,0,,58
2011-12-29,63,47,30,40,34,27,85,64,43,30.01,29.91,29.78,10,10,10,9,2,10,0.00,0,,42
2011-12-30,65,52,38,42,34,27,85,55,24,30.03,29.94,29.79,10,10,10,18,8,22,0.00,0,,258
2011-12-31,70,52,34,47,36,28,82,53,24,30.02,29.93,29.78,10,10,10,20,6,24,0.00,0,,75